Location: Biltmore Gardens
(41.6070°N, 83.4666°W)
Time: 01:40:01
(UTC+00:00)

Tiros 1 despin weight - Visible Passes

Search period start: 21 April 2021 00:00
Search period end: 01 May 2021 00:00
Orbit: 593 x 641 km, 48.2° (Epoch: 20 April)

Date Brightness Start Highest point End Pass type
(mag) Time Alt. Az. Time Alt. Az. Time Alt. Az.
21 Apr ? 08:52:15 16° SSE 08:54:12 20° SE 08:57:33 10° E visible
22 Apr ? 09:07:56 22° SSW 09:10:16 37° SE 09:14:29 10° ENE visible
23 Apr ? 07:46:29 13° ESE 07:46:29 13° ESE 07:47:50 10° ESE visible
23 Apr ? 09:23:31 22° SW 09:26:27 66° SSE 09:31:00 10° ENE visible
24 Apr ? 08:02:01 25° SE 08:02:01 25° SE 08:05:21 10° E visible
24 Apr ? 09:39:03 16° WSW 09:42:46 76° NNW 09:47:22 10° ENE visible
25 Apr ? 08:17:29 47° SSE 08:17:38 47° SE 08:22:04 10° ENE visible
25 Apr ? 09:54:40 10° W 09:59:12 52° NNW 10:03:41 10° ENE visible
26 Apr ? 06:55:52 10° E 06:55:52 10° E 06:55:57 10° E visible
26 Apr ? 08:32:53 55° SW 08:33:52 82° SSE 08:38:29 10° ENE visible
27 Apr ? 07:11:13 21° E 07:11:13 21° E 07:13:00 10° ENE visible
27 Apr ? 08:48:14 33° W 08:50:14 65° NNW 08:54:49 10° ENE visible
28 Apr ? 07:26:32 38° E 07:26:32 38° E 07:29:35 10° ENE visible
28 Apr ? 09:03:33 18° W 09:06:43 46° NNW 09:11:09 10° ENE visible
29 Apr ? 07:41:49 70° NE 07:41:49 70° NE 07:45:56 10° ENE visible
29 Apr ? 09:18:55 10° WNW 09:23:17 38° N 09:27:34 10° ENE visible
30 Apr ? 06:20:03 13° ENE 06:20:03 13° ENE 06:20:35 10° ENE visible
30 Apr ? 07:57:04 51° NW 07:57:43 56° NNW 08:02:16 10° ENE visible
30 Apr ? 09:35:35 10° WNW 09:39:52 36° N 09:44:07 10° ENE visible
